Lapse_Rate
4.2 4.1 3.8 4.0 4.2 4.8 4.9 5.3 5.5 6.1 6.7 7.1 7.0 6.5 5.4 5.5 5.4 4.6 4.1 3.9 4.2 4.4 4.5 4.8 5.4 7.7 7.4 7.3 5.8 3.0 5.1 4.9 6.3 7.6 7.4 7.0 6.8 6.8 6.5 6.5 6.3 6.5 6.5 6.4 6.1 5.1 4.7
4.1 4.1 4.1 4.6 4.7 5.0 5.9 6.3 6.8 7.1 7.2 7.7 7.9 7.9 6.7 6.2 5.5 4.9 3.9 3.2 3.1 4.1 4.4 4.8 6.0 7.3 7.3 6.5 3.4 3.1 3.8 4.8 5.3 6.1 7.0 6.5 7.0 6.4 6.3 6.4 6.5 6.1 6.5 6.4 5.9 6.4 5.4
4.2 4.5 5.5 4.9 4.9 5.5 5.7 6.7 7.2 7.7 8.1 8.3 9.0 8.1 7.6 7.3 6.1 4.4 4.2 3.4 3.2 3.9 4.5 5.3 6.7 7.7 7.4 5.0 4.5 4.4 4.2 5.3 5.3 5.1 5.7 6.7 6.5 6.8 5.1 6.5 5.9 6.2 6.5 6.5 6.5 6.2 6.5
4.5 5.0 5.8 5.2 4.9 5.6 6.6 7.3 8.2 8.4 8.5 8.6 9.0 8.1 7.2 6.9 6.7 5.7 3.7 3.2 3.9 4.7 5.0 6.7 7.9 7.5 6.5 5.8 5.6 4.7 4.8 5.7 5.5 6.6 6.3 5.9 6.8 6.4 6.0 5.9 6.3 6.5 6.5 6.5 6.5 6.5 6.3
4.6 4.5 4.6 5.2 6.2 6.9 7.4 8.1 8.9 8.4 8.6 9.0 8.2 8.1 7.5 7.0 6.5 5.7 4.0 3.8 4.3 4.9 6.3 7.0 6.5 6.7 6.5 6.8 5.9 5.3 5.2 6.2 5.1 6.7 6.9 7.4 7.4 6.4 6.3 6.5 6.5 6.5 6.5 6.5 6.5 6.5 6.5
4.6 4.8 5.2 6.0 6.8 7.9 8.5 9.1 8.2 8.1 8.4 8.3 8.3 8.1 7.7 7.2 6.1 5.7 5.2 4.3 4.3 5.6 7.7 7.6 7.2 6.6 6.1 6.2 6.5 6.7 4.6 5.7 6.5 6.0 6.1 6.2 6.6 6.5 6.5 6.5 6.5 6.5 6.5 6.5 6.5 6.5 6.5
4.6 5.3 6.2 6.7 8.3 9.1 8.4 8.1 7.8 7.9 7.9 7.9 7.9 7.2 7.3 8.1 5.8 5.7 5.7 1.7 3.5 3.5 3.7 5.8 5.8 6.3 6.2 5.6 6.0 6.6 6.1 6.2 5.7 6.2 6.5 6.5 6.5 6.5 6.5 6.5 6.5 6.5 6.5 6.5 6.5 6.5 6.5
4.6 5.2 6.2 8.3 8.6 8.1 7.9 7.7 7.7 7.7 7.8 7.4 7.2 6.9 8.2 9.0 6.7 6.8 4.5 5.2 6.1 6.9 6.6 6.1 4.2 6.1 5.8 6.1 6.9 7.0 5.2 5.8 5.9 6.5 6.5 6.5 6.5 6.5 6.5 6.5 6.5 6.5 6.5 6.5 6.5 6.5 6.5
5.1 6.3 8.8 8.2 7.8 7.9 8.2 8.7 8.5 8.5 8.2 6.5 6.6 7.9 8.2 8.4 7.1 4.7 4.6 6.6 5.5 5.7 6.6 6.4 5.5 6.2 6.0 6.4 6.7 6.6 5.9 5.5 6.5 6.5 6.5 6.5 6.5 6.5 6.5 6.5 6.5 6.5 6.5 6.5 6.5 6.5 6.5
5.8 8.7 7.8 7.6 7.9 8.9 8.9 8.3 9.1 9.4 8.4 7.2 7.4 7.2 7.1 7.6 5.5 4.3 5.4 5.1 4.2 6.1 6.5 6.5 6.6 6.5 6.8 6.4 6.5 6.6 6.4 6.4 6.5 6.5 6.5 6.5 6.5 6.5 6.5 6.5 6.5 6.5 6.5 6.5 6.5 6.5 6.5
8.2 7.9 7.9 8.0 8.6 8.9 8.8 9.3 9.1 8.9 7.8 7.1 6.8 7.0 6.7 6.6 4.3 4.2 5.9 4.3 4.3 5.8 6.5 6.5 6.7 7.4 7.4 6.7 7.0 6.7 6.9 7.1 6.5 6.5 6.5 6.5 6.5 6.5 6.5 6.5 6.5 6.5 6.5 6.5 6.5 6.5 6.5
7.9 7.7 8.0 8.2 8.9 8.8 8.8 8.9 9.1 8.8 7.2 6.7 6.5 6.7 6.8 4.8 3.4 4.8 4.7 2.9 4.9 6.5 6.5 6.5 6.6 6.5 6.5 6.7 6.7 6.8 6.4 6.8 6.7 6.5 6.5 6.5 6.4 6.5 6.5 6.5 6.5 6.5 6.5 6.5 6.5 6.5 6.5
7.7 8.0 8.2 8.9 8.4 7.7 9.3 9.3 9.1 7.5 6.9 6.5 6.0 6.1 5.6 5.1 5.3 4.4 3.4 3.8 6.5 6.5 6.5 6.5 6.5 6.5 6.5 6.5 6.5 6.5 6.5 6.5 6.5 6.5 6.5 6.5 6.5 6.5 6.5 6.5 6.5 6.5 6.5 6.5 6.5 6.5 6.5
7.6 8.1 9.0 7.2 7.5 8.5 9.1 9.1 8.7 7.1 6.8 6.0 5.5 5.8 3.7 4.0 3.7 1.8 2.1 6.2 6.5 6.5 6.5 6.5 6.5 6.5 6.5 6.5 6.5 6.5 6.5 6.5 6.5 6.5 6.5 6.5 6.5 6.5 6.5 6.5 6.5 6.5 6.5 6.5 6.5 6.5 6.5
7.8 7.8 6.3 6.5 6.8 7.9 8.9 8.7 8.7 7.1 6.7 5.9 4.9 1.0 2.3 3.4 3.3 1.3 3.5 6.5 6.5 6.5 6.5 6.5 6.5 6.5 6.5 6.5 6.5 6.5 6.5 6.5 6.5 6.5 6.5 6.5 6.5 6.5 6.5 6.5 6.5 6.5 6.5 6.5 6.5 6.5 6.5
6.8 5.7 5.8 5.4 6.5 8.1 8.6 8.9 8.6 7.5 6.5 5.9 1.4 0.6 3.3 3.4 2.2 2.5 6.0 6.5 6.5 6.5 6.5 6.5 6.5 6.5 6.5 6.5 6.5 6.5 6.5 6.5 6.5 6.5 6.5 6.5 6.5 6.5 6.5 6.5 6.5 6.5 6.5 6.5 6.5 6.5 6.5
5.1 5.4 5.1 6.3 7.2 8.0 8.2 8.4 8.5 8.2 6.8 5.1 0.1 2.4 5.2 4.2 2.7 3.2 6.5 6.5 6.5 6.2 6.3 6.5 6.5 6.5 6.5 6.5 6.5 6.5 6.5 6.5 6.5 6.5 6.5 6.5 6.5 6.5 6.5 6.5 6.5 6.5 6.5 6.5 6.5 6.5 6.5
5.0 5.2 5.2 6.3 8.1 7.9 8.0 8.0 8.0 7.7 7.0 3.0 1.2 6.4 4.3 2.8 6.0 5.6 6.5 6.5 6.9 6.4 6.0 6.5 6.5 6.5 6.5 6.5 6.5 6.5 6.5 6.5 6.2 6.5 6.5 6.5 6.5 6.5 6.5 6.5 6.5 6.5 6.5 6.5 6.5 6.5 6.5
4.5 5.0 5.6 6.7 8.3 8.3 7.9 7.5 7.9 7.6 6.9 3.1 7.2 4.8 3.6 4.1 6.5 6.5 6.4 6.5 6.5 6.5 6.5 6.5 6.5 6.5 6.5 6.5 6.5 6.5 6.5 6.4 6.1 6.5 6.5 6.5 6.5 6.5 6.5 6.5 6.5 6.5 6.5 6.5 6.5 6.5 6.5
4.4 5.0 6.0 7.5 7.6 8.4 7.9 7.6 8.0 7.5 6.7 2.0 4.0 6.5 5.0 3.2 5.2 6.5 6.5 6.5 6.5 6.3 6.5 6.5 6.5 6.4 6.5 6.5 6.5 6.5 6.5 6.5 6.4 6.4 7.0 6.4 6.5 6.5 6.5 6.5 6.5 6.5 6.5 6.5 6.5 6.5 6.5
4.8 5.4 6.3 6.7 7.3 7.8 7.5 7.8 8.2 7.1 6.4 2.4 4.2 6.7 6.4 6.5 6.3 6.5 6.4 6.5 6.5 6.5 6.3 6.1 6.5 6.5 6.5 6.5 6.5 6.5 6.5 6.5 6.5 6.7 6.4 6.5 6.5 6.5 6.5 6.5 6.5 6.5 6.5 6.5 6.5 6.5 6.5
4.8 5.4 5.9 6.9 6.5 6.3 7.1 8.4 7.9 7.4 6.5 4.2 5.2 6.2 3.7 6.7 5.3 6.4 6.5 6.5 6.5 6.5 6.5 6.5 6.5 6.5 6.5 6.5 6.5 6.5 6.5 6.5 6.5 6.5 6.5 6.5 6.5 6.5 6.5 6.5 6.5 6.5 6.5 6.5 6.5 6.5 6.5
5.0 4.9 5.8 6.5 6.6 6.4 7.1 7.9 8.2 7.8 7.6 4.9 5.9 6.4 6.4 4.8 5.9 6.5 6.5 6.5 6.5 6.5 6.5 6.4 6.4 6.5 6.5 6.5 6.7 6.8 6.8 6.5 6.5 6.5 6.5 6.5 6.5 6.5 6.5 6.5 6.5 6.5 6.5 6.5 6.5 6.5 6.5
4.7 5.0 5.5 6.3 6.3 6.7 6.6 7.0 8.6 8.0 7.1 4.7 5.2 6.5 5.4 6.5 6.5 6.5 6.5 6.6 6.5 6.5 6.5 4.8 6.0 6.5 5.0 4.8 4.1 5.6 5.5 6.5 6.5 6.5 6.6 6.5 6.5 6.5 6.5 6.5 6.5 6.5 6.5 6.5 6.5 6.5 6.5
4.7 5.2 5.6 5.9 6.1 6.9 7.4 7.5 8.7 8.2 7.0 4.6 5.0 6.4 5.9 6.5 6.5 6.0 6.1 6.5 4.4 3.5 5.8 6.4 6.0 5.5 3.5 3.9 6.5 6.5 6.5 6.5 6.5 6.5 6.5 6.5 6.5 6.5 6.5 6.5 6.5 6.5 6.5 6.5 6.5 6.5 6.5
4.6 5.0 5.4 5.8 6.1 6.4 7.1 6.8 8.2 7.8 6.9 4.5 6.7 7.1 6.5 6.3 6.1 6.1 4.6 4.2 6.5 6.5 6.5 5.5 4.0 3.2 2.6 6.4 6.5 6.5 6.5 6.5 6.5 6.5 6.5 6.5 6.5 6.5 6.5 6.5 6.5 6.5 6.5 6.5 6.5 6.5 6.5
4.7 4.9 5.3 5.7 6.1 6.3 6.3 6.8 6.8 7.1 7.0 5.3 6.6 7.1 6.1 4.6 3.8 6.3 6.6 6.5 3.8 5.9 6.5 4.7 5.1 4.6 2.4 6.5 6.5 6.5 6.5 6.5 6.5 6.5 6.5 6.5 6.5 6.5 6.5 6.5 6.5 6.5 6.6 6.3 6.5 6.5 6.7
4.4 4.7 5.2 5.4 5.9 6.0 6.3 6.2 6.4 6.3 6.9 5.2 4.9 5.2 5.0 0.2 3.6 7.4 8.1 7.1 2.9 4.3 6.5 3.6 4.7 4.2 5.5 6.5 6.5 6.5 6.5 6.5 6.5 6.5 6.5 6.5 6.5 6.5 6.5 6.5 6.5 6.6 6.5 6.5 6.5 6.6 6.2
4.4 4.8 5.2 5.4 5.8 6.0 6.0 5.8 5.9 6.3 6.5 5.6 3.9 4.1 4.3 7.2 3.8 6.8 6.2 6.1 5.5 4.6 6.7 3.7 5.1 6.1 6.0 6.5 6.5 6.5 6.5 6.5 6.5 6.5 6.5 6.5 6.5 6.5 6.5 6.5 6.7 6.6 6.6 6.4 5.0 5.4 6.0
Wind_Speed
20 22 23 23 24 24 25 26 27 27 28 29 31 32 34 36 36 36 37 37 36 33 27 25 18 9 5 7 12 8 8 4 8 17 17 20 18 21 20 12 5 16 5 14 11 9 7
21 22 22 23 24 25 26 27 27 28 29 28 31 33 36 38 38 36 38 40 42 35 26 23 13 13 4 10 5 7 2 2 8 18 17 13 12 9 13 6 21 5 14 8 7 13 6
22 22 23 24 25 26 27 27 28 28 28 28 34 34 36 38 40 41 40 40 41 37 29 19 10 11 9 16 2 4 3 3 5 20 15 17 3 14 8 4 6 5 5 5 11 6 6
22 23 24 24 26 26 28 28 29 30 30 30 34 35 38 39 40 41 42 45 37 33 26 12 13 6 8 5 9 6 3 4 4 15 5 16 8 7 4 3 4 9 3 7 7 10 7
22 23 23 25 26 28 29 29 31 33 34 32 33 36 39 40 40 40 43 37 35 21 10 11 5 5 7 5 2 6 6 5 5 9 2 14 14 4 6 6 3 5 7 16 6 12 6
22 23 25 26 27 28 29 31 32 33 34 34 35 35 37 39 40 42 34 38 17 6 5 4 0 4 5 2 3 3 4 6 4 8 5 8 6 7 8 10 16 9 12 5 10 10 16
23 24 25 27 27 29 31 32 33 35 36 35 37 35 36 39 44 37 17 5 6 5 7 4 7 6 7 8 4 2 1 4 4 6 9 4 5 15 21 21 8 5 12 9 4 5 9
22 25 27 26 29 30 32 33 34 35 37 39 37 35 37 39 41 18 8 6 7 8 11 10 18 11 12 6 9 7 7 8 6 14 7 3 14 11 4 8 12 8 6 5 1 2 4
24 26 26 28 30 32 32 34 33 36 40 40 38 38 38 39 27 6 3 2 2 2 6 6 5 3 5 4 4 7 6 3 5 6 10 12 3 9 9 10 14 14 16 11 5 1 1
24 26 28 29 30 32 33 34 36 37 37 37 39 39 39 33 6 6 5 5 7 3 5 7 6 6 7 2 3 3 3 1 1 10 7 8 6 4 6 13 13 17 13 13 11 8 6
24 26 28 29 31 33 34 33 34 37 35 37 39 40 38 18 4 4 7 16 11 2 4 11 6 6 12 9 12 9 3 2 3 4 5 5 4 5 8 6 12 9 8 16 15 13 4
24 26 27 28 31 31 31 32 33 34 36 39 40 39 27 7 3 5 15 13 1 2 5 8 4 13 9 6 7 14 7 4 3 2 1 6 3 4 3 3 10 7 7 6 4 5 5
24 25 26 29 28 29 30 30 33 35 36 38 40 36 11 4 7 18 13 3 4 6 13 11 10 13 5 7 4 5 9 7 6 2 4 4 7 1 2 5 4 9 7 3 3 4 3
24 24 25 26 27 29 29 30 33 35 36 38 38 24 9 4 20 13 4 5 10 9 6 6 6 11 4 8 6 11 3 5 10 8 2 2 4 4 1 3 5 10 4 3 5 5 3
23 25 25 25 27 28 28 30 33 34 35 37 30 5 5 8 20 4 4 10 4 4 7 9 16 5 6 7 5 8 6 9 4 8 7 6 4 5 7 3 1 4 5 3 5 2 3
26 24 24 25 27 27 28 30 32 33 34 35 3 4 5 21 15 5 6 6 2 4 9 3 6 7 5 8 8 7 9 5 8 7 6 5 3 4 3 1 5 3 2 3 1 5 5
23 23 24 25 25 27 28 30 30 32 34 28 4 4 4 25 4 5 3 3 4 7 6 5 4 5 4 5 4 4 5 3 6 8 3 2 2 4 3 6 3 1 2 1 3 1 3
22 23 23 24 25 26 28 27 29 30 31 8 3 3 5 7 6 3 4 8 8 6 5 4 2 3 3 5 4 3 4 2 5 3 3 2 1 2 2 4 6 8 6 4 3 3 1
21 22 23 24 26 25 25 26 27 27 25 2 3 3 4 5 6 8 6 4 3 9 7 8 5 5 3 3 4 1 3 4 6 6 1 3 3 3 2 2 4 5 6 6 0 2 2
21 22 23 25 24 25 24 24 24 24 21 3 3 5 4 4 2 7 8 5 11 7 4 5 4 5 12 3 4 3 2 4 6 5 10 4 2 4 3 0 3 4 8 7 2 2 3
20 22 23 24 25 25 24 23 23 22 18 3 3 3 1 5 5 8 4 6 11 9 5 7 4 14 9 5 6 6 4 4 4 9 5 4 3 3 2 4 2 3 3 6 4 0 3
20 21 23 24 23 23 22 20 20 17 12 4 2 2 3 4 4 5 7 4 10 11 3 5 9 13 3 5 6 9 6 3 1 5 3 4 1 2 3 2 4 3 4 2 4 2 3
21 21 22 22 21 21 21 21 18 15 10 2 2 1 1 4 5 4 3 8 7 10 4 2 6 7 5 7 13 12 6 3 2 1 3 3 2 3 3 4 4 3 4 4 1 2 2
20 20 20 21 21 20 19 19 18 16 8 2 1 1 2 3 2 4 8 5 12 9 4 5 5 7 5 9 4 1 4 3 2 1 0 2 2 2 2 3 4 3 6 0 3 5 6
19 19 20 20 20 18 17 17 17 14 7 3 1 2 2 3 2 4 8 5 7 5 4 3 3 5 8 5 4 5 4 4 3 1 2 4 1 1 1 0 2 1 3 3 2 3 5
18 19 19 19 18 17 16 16 16 13 5 3 1 1 1 2 3 4 2 2 4 4 7 4 5 4 6 3 4 3 3 3 5 8 2 5 3 3 2 2 3 3 3 2 1 2 6
17 18 18 18 17 16 16 15 14 13 4 3 1 4 1 0 3 2 3 4 2 4 4 5 7 7 3 4 3 3 3 0 4 6 4 3 3 2 3 2 2 4 10 4 4 3 4
17 16 16 17 16 14 14 14 13 14 11 3 1 5 1 2 3 2 2 3 3 2 3 5 4 4 4 5 3 2 2 2 2 2 5 2 2 2 1 3 3 14 3 5 2 3 4
16 15 15 14 14 12 12 12 12 11 12 2 2 4 5 1 4 2 1 2 4 5 2 2 3 2 2 2 1 1 2 2 2 3 3 3 2 2 2 2 3 4 4 4 2 4 4
Wind_Direction
17 15 12 6 3 1 360 360 359 356 354 353 351 349 347 342 337 333 331 328 326 322 312 310 288 227 159 229 245 262 326 316 164 183 192 183 178 196 206 204 178 220 199 204 210 194 201
15 14 9 2 2 359 358 359 356 355 353 351 351 347 345 343 339 334 331 326 324 319 312 306 278 186 181 246 241 236 332 317 167 181 199 179 202 182 204 181 202 203 213 213 206 218 199
13 11 5 3 0 359 357 355 354 351 349 349 350 345 343 341 340 335 330 324 318 311 311 293 221 175 214 245 220 190 305 242 192 184 182 204 185 189 132 197 216 156 151 227 227 198 210
10 7 4 1 360 357 354 352 350 350 346 345 347 342 340 339 337 332 326 320 309 306 301 257 204 185 242 252 249 264 164 267 195 187 179 189 164 193 170 176 74 202 167 219 181 182 211
8 7 3 2 357 356 352 349 350 348 346 345 342 340 337 336 333 328 324 316 310 306 279 252 165 211 259 333 213 243 167 189 149 172 174 176 182 188 162 148 161 198 224 226 240 194 158
6 4 4 358 356 353 353 352 351 348 345 343 341 337 333 332 332 328 327 311 313 331 332 142 90 235 254 289 325 307 180 156 154 153 109 171 184 184 189 191 215 189 214 178 194 197 207
6 4 360 358 355 355 352 349 345 343 342 344 341 334 333 336 335 336 338 355 12 353 19 276 282 268 308 320 289 246 169 114 103 183 191 219 200 205 202 210 202 174 195 195 202 179 170
3 1 359 356 355 353 351 349 347 347 347 344 339 333 336 339 332 360 357 62 104 272 296 240 260 276 266 244 280 255 150 164 157 205 176 166 225 222 182 193 222 213 171 171 244 190 158
2 0 356 355 355 356 355 354 352 348 343 340 335 336 338 340 335 10 349 91 322 332 275 291 235 277 314 134 250 258 177 145 151 151 198 208 218 200 191 209 221 229 230 203 178 301 99
360 358 357 359 1 355 355 355 351 345 345 338 341 340 341 348 32 332 325 302 314 221 303 302 24 10 357 289 289 285 258 107 346 193 170 228 231 133 176 212 199 226 223 229 198 174 214
355 358 3 2 0 357 355 352 352 349 343 344 342 342 343 4 269 318 281 328 313 192 357 356 7 286 343 26 332 350 333 12 228 169 161 224 183 167 195 195 189 220 165 192 197 195 136
356 2 4 0 360 359 358 357 352 349 348 343 342 343 348 357 319 255 317 317 276 290 315 354 321 337 352 2 26 332 353 66 49 16 205 252 301 180 206 108 172 139 82 55 71 156 211
357 4 2 1 359 359 357 359 354 353 348 344 339 342 355 338 311 316 322 2 58 24 337 340 331 333 325 352 349 41 343 41 8 283 221 189 224 51 17 92 72 129 155 136 150 192 199
355 1 3 359 1 357 358 356 355 351 348 344 338 341 326 286 323 331 8 48 55 341 2 316 302 316 13 2 359 350 55 13 15 356 310 244 159 9 19 168 172 184 186 157 157 176 162
6 4 0 0 360 358 356 355 354 349 346 344 339 344 342 330 339 0 44 48 47 332 318 311 315 351 343 3 6 9 46 14 19 357 5 353 62 329 26 41 57 174 200 151 108 54 108
359 0 1 3 358 356 353 353 353 350 347 346 345 341 313 335 342 41 54 66 324 316 321 325 335 28 338 334 8 17 4 341 345 2 352 342 298 348 295 333 45 84 153 97 120 170 168
358 358 2 0 357 353 351 352 353 352 349 346 33 24 285 337 26 38 53 319 315 315 349 338 330 322 330 335 329 339 344 318 352 332 22 329 54 317 304 28 353 360 138 99 92 52 151
359 358 359 357 354 348 350 355 356 352 353 27 21 30 319 353 44 30 13 326 312 329 339 334 294 284 339 301 306 320 348 231 337 311 4 316 104 305 60 36 33 67 6 347 129 235 58
359 357 357 355 353 355 357 356 357 356 2 339 13 302 329 25 35 11 335 310 307 341 339 352 328 20 337 278 317 278 353 318 350 15 29 309 350 357 42 114 19 32 3 356 64 92 218
358 357 357 356 356 356 357 356 358 1 359 75 34 3 332 34 51 8 358 342 341 340 302 341 281 343 326 303 224 300 321 12 356 357 20 35 54 123 167 261 309 350 351 346 20 95 168
358 357 357 354 357 358 1 359 3 5 2 78 24 23 120 333 352 340 324 352 342 350 337 356 340 356 355 337 335 0 17 339 11 355 23 71 81 32 304 319 350 295 322 333 358 219 113
355 358 357 358 1 359 3 5 6 12 4 65 50 355 355 307 316 346 355 330 337 342 297 333 358 329 10 23 347 316 346 6 321 335 40 354 20 53 318 347 4 317 322 272 316 338 49
355 357 355 357 2 2 3 5 7 11 18 52 337 330 340 317 329 3 10 329 316 341 299 347 336 333 338 335 315 296 294 310 291 12 3 55 73 52 291 356 16 26 338 287 284 12 33
353 353 352 356 359 0 2 1 4 11 46 112 291 304 21 292 21 350 336 317 331 322 279 303 347 345 266 321 282 90 67 95 121 30 117 85 52 101 270 10 37 258 341 122 88 38 356
346 351 351 354 355 356 357 360 2 16 45 87 314 22 358 316 298 324 337 333 321 288 328 289 307 254 311 355 29 23 353 16 3 31 335 155 145 74 60 215 268 92 8 30 17 51 350
346 347 350 351 352 350 353 357 6 11 55 91 23 357 139 316 291 276 316 293 349 319 335 301 307 322 19 54 55 61 39 320 338 344 40 46 87 104 26 78 22 19 338 298 191 74 10
346 347 349 350 350 352 357 2 1 359 42 111 57 17 103 305 278 347 360 323 346 325 297 301 335 341 29 13 50 37 328 220 8 340 336 349 359 46 10 30 340 343 317 294 83 349 3
345 348 350 353 354 354 358 4 9 11 10 101 90 25 98 135 267 325 345 334 345 360 343 286 10 350 355 35 50 305 54 271 360 291 331 359 358 359 17 43 7 350 353 59 317 347 42
346 349 355 356 353 358 7 14 8 23 21 65 55 348 325 230 228 337 181 176 173 194 275 328 213 319 336 16 341 37 334 2 169 328 344 39 354 310 115 33 34 358 41 20 30 44 23